Time,TemperatureF,DewpointF,PressureIn,WindDirection,WindDirectionDegrees,WindSpeedMPH,WindSpeedGustMPH,Humidity,HourlyPrecipIn,Conditions,Clouds,dailyrainin,SoftwareType,DateUTC
2013-07-11 00:02:00,60.3,58.5,21.94,SW,225,0.0,1.0,94,0.00,,,0.00,meteohub,2013-07-11 05:02:00,
2013-07-11 00:07:00,60.1,58.3,21.94,West,270,0.0,0.0,94,0.00,,,0.00,meteohub,2013-07-11 05:07:00,
2013-07-11 00:12:00,60.1,58.6,21.94,SW,225,0.0,0.0,95,0.00,,,0.00,meteohub,2013-07-11 05:12:00,
2013-07-11 00:17:00,60.1,58.6,21.94,West,270,0.0,0.0,95,0.00,,,0.00,meteohub,2013-07-11 05:17:00,
2013-07-11 00:22:00,59.9,58.5,21.94,SW,225,0.0,0.0,95,0.00,,,0.00,meteohub,2013-07-11 05:22:00,
2013-07-11 00:27:00,59.7,58.3,21.94,West,270,0.0,0.0,95,0.00,,,0.00,meteohub,2013-07-11 05:27:00,
2013-07-11 00:32:00,59.7,58.3,21.94,NW,315,0.0,0.0,95,0.00,,,0.00,meteohub,2013-07-11 05:32:00,
2013-07-11 00:37:00,59.7,58.3,21.94,West,270,0.0,0.0,95,0.00,,,0.00,meteohub,2013-07-11 05:37:00,
2013-07-11 00:42:00,59.7,58.6,21.94,NW,315,0.0,0.0,96,0.00,,,0.00,meteohub,2013-07-11 05:42:00,
2013-07-11 00:47:00,59.7,58.6,21.93,NW,315,1.0,1.0,96,0.00,,,0.00,meteohub,2013-07-11 05:47:00,
2013-07-11 00:52:00,59.7,58.6,21.93,NW,315,1.0,2.0,96,0.00,,,0.00,meteohub,2013-07-11 05:52:00,
2013-07-11 00:57:00,59.7,58.6,21.93,West,270,0.0,2.0,96,0.00,,,0.00,meteohub,2013-07-11 05:57:00,
2013-07-11 01:02:00,59.7,58.6,21.93,NW,315,0.0,2.0,96,0.00,,,0.00,meteohub,2013-07-11 06:02:00,
2013-07-11 01:07:00,59.7,58.6,21.93,NW,315,0.0,1.0,96,0.00,,,0.00,meteohub,2013-07-11 06:07:00,
2013-07-11 01:12:00,59.5,58.6,21.93,West,270,0.0,0.0,97,0.00,,,0.00,meteohub,2013-07-11 06:12:00,
2013-07-11 01:17:00,59.4,58.5,21.93,North,0,0.0,0.0,97,0.00,,,0.00,meteohub,2013-07-11 06:17:00,
2013-07-11 01:22:00,59.2,58.3,21.92,West,270,1.0,0.0,97,0.00,,,0.00,meteohub,2013-07-11 06:22:00,
2013-07-11 01:27:00,59.2,58.3,21.93,West,270,0.0,1.0,97,0.00,,,0.00,meteohub,2013-07-11 06:27:00,
2013-07-11 01:32:00,59.2,58.3,21.93,SW,225,0.0,1.0,97,0.00,,,0.00,meteohub,2013-07-11 06:32:00,
2013-07-11 01:37:00,59.2,58.3,21.93,West,270,0.0,1.0,97,0.00,,,0.00,meteohub,2013-07-11 06:37:00,
2013-07-11 01:42:00,59.0,58.1,21.92,NW,315,0.0,0.0,97,0.00,,,0.00,meteohub,2013-07-11 06:42:00,
2013-07-11 01:47:00,59.0,58.1,21.92,West,270,0.0,0.0,97,0.00,,,0.00,meteohub,2013-07-11 06:47:00,
2013-07-11 01:52:00,58.8,58.5,21.92,West,270,0.0,0.0,99,0.00,,,0.00,meteohub,2013-07-11 06:52:00,
2013-07-11 01:57:00,58.6,58.3,21.92,West,270,0.0,0.0,99,0.00,,,0.00,meteohub,2013-07-11 06:57:00,
2013-07-11 02:02:00,58.5,58.1,21.92,West,270,0.0,0.0,99,0.00,,,0.00,meteohub,2013-07-11 07:02:00,
2013-07-11 02:07:00,58.3,57.9,21.92,West,270,0.0,0.0,99,0.00,,,0.00,meteohub,2013-07-11 07:07:00,
2013-07-11 02:12:00,58.1,57.7,21.92,West,270,0.0,0.0,99,0.00,,,0.00,meteohub,2013-07-11 07:12:00,
2013-07-11 02:17:00,57.9,57.4,21.92,West,270,0.0,0.0,98,0.00,,,0.00,meteohub,2013-07-11 07:17:00,
2013-07-11 02:22:00,57.9,57.6,21.91,North,0,0.0,0.0,99,0.00,,,0.00,meteohub,2013-07-11 07:22:00,
2013-07-11 02:27:00,57.9,57.6,21.91,NW,315,0.0,0.0,99,0.00,,,0.00,meteohub,2013-07-11 07:27:00,
2013-07-11 02:31:00,57.9,57.6,21.91,West,270,0.0,0.0,99,0.00,,,0.00,meteohub,2013-07-11 07:31:00,
2013-07-11 02:37:00,57.9,57.6,21.91,NW,315,0.0,0.0,99,0.00,,,0.00,meteohub,2013-07-11 07:37:00,
2013-07-11 02:42:00,57.7,57.4,21.91,NW,315,0.0,0.0,99,0.00,,,0.00,meteohub,2013-07-11 07:42:00,
2013-07-11 02:47:00,57.6,57.2,21.91,NW,315,0.0,0.0,99,0.00,,,0.00,meteohub,2013-07-11 07:47:00,
2013-07-11 02:52:00,57.7,57.4,21.91,West,270,0.0,0.0,99,0.00,,,0.00,meteohub,2013-07-11 07:52:00,
2013-07-11 02:56:00,57.9,57.6,21.91,NW,315,0.0,0.0,99,0.00,,,0.00,meteohub,2013-07-11 07:56:00,
2013-07-11 03:02:00,57.9,57.6,21.91,NW,315,0.0,0.0,99,0.00,,,0.00,meteohub,2013-07-11 08:02:00,
2013-07-11 03:07:00,57.9,57.6,21.91,NW,315,0.0,0.0,99,0.00,,,0.00,meteohub,2013-07-11 08:07:00,
2013-07-11 03:11:00,57.6,57.2,21.91,North,0,1.0,0.0,99,0.00,,,0.00,meteohub,2013-07-11 08:11:00,
2013-07-11 03:17:00,57.4,57.0,21.91,North,0,0.0,2.0,99,0.00,,,0.00,meteohub,2013-07-11 08:17:00,
2013-07-11 03:22:00,57.2,56.8,21.91,NW,315,1.0,2.0,99,0.00,,,0.00,meteohub,2013-07-11 08:22:00,
2013-07-11 03:27:00,57.4,57.0,21.90,NW,315,2.0,2.0,99,0.00,,,0.00,meteohub,2013-07-11 08:27:00,
2013-07-11 03:32:00,57.4,57.0,21.91,NW,315,0.0,2.0,99,0.00,,,0.00,meteohub,2013-07-11 08:32:00,
2013-07-11 03:37:00,57.4,57.0,21.91,West,270,0.0,2.0,99,0.00,,,0.00,meteohub,2013-07-11 08:37:00,
2013-07-11 03:42:00,57.2,56.8,21.91,North,0,0.0,2.0,99,0.00,,,0.00,meteohub,2013-07-11 08:42:00,
2013-07-11 03:47:00,57.0,56.7,21.90,North,0,0.0,0.0,99,0.00,,,0.00,meteohub,2013-07-11 08:47:00,
2013-07-11 03:52:00,56.8,56.5,21.91,North,0,0.0,0.0,99,0.00,,,0.00,meteohub,2013-07-11 08:52:00,
2013-07-11 03:57:00,56.8,56.5,21.91,North,0,0.0,0.0,99,0.00,,,0.00,meteohub,2013-07-11 08:57:00,
2013-07-11 04:02:00,57.0,56.7,21.90,NW,315,0.0,0.0,99,0.00,,,0.00,meteohub,2013-07-11 09:02:00,
2013-07-11 04:07:00,57.0,56.7,21.90,NW,315,0.0,0.0,99,0.00,,,0.00,meteohub,2013-07-11 09:07:00,
2013-07-11 04:12:00,57.0,56.7,21.90,NW,315,0.0,0.0,99,0.00,,,0.00,meteohub,2013-07-11 09:12:00,
2013-07-11 04:17:00,56.7,56.3,21.90,NW,315,0.0,0.0,99,0.00,,,0.00,meteohub,2013-07-11 09:17:00,
2013-07-11 04:22:00,56.5,56.1,21.91,North,0,0.0,0.0,99,0.00,,,0.00,meteohub,2013-07-11 09:22:00,
2013-07-11 04:27:00,56.5,56.1,21.91,NW,315,0.0,0.0,99,0.00,,,0.00,meteohub,2013-07-11 09:27:00,
2013-07-11 04:32:00,56.5,56.1,21.91,NW,315,0.0,0.0,99,0.00,,,0.00,meteohub,2013-07-11 09:32:00,
2013-07-11 04:37:00,56.5,56.1,21.90,North,0,0.0,0.0,99,0.00,,,0.00,meteohub,2013-07-11 09:37:00,
2013-07-11 04:42:00,56.5,56.1,21.90,NW,315,0.0,0.0,99,0.00,,,0.00,meteohub,2013-07-11 09:42:00,
2013-07-11 04:47:00,56.3,55.9,21.90,North,0,0.0,0.0,99,0.00,,,0.00,meteohub,2013-07-11 09:47:00,
2013-07-11 04:52:00,56.3,55.9,21.90,West,270,0.0,0.0,99,0.00,,,0.00,meteohub,2013-07-11 09:52:00,
2013-07-11 04:57:00,56.3,55.9,21.90,West,270,0.0,0.0,99,0.00,,,0.00,meteohub,2013-07-11 09:57:00,
2013-07-11 05:02:00,56.5,56.1,21.90,West,270,0.0,0.0,99,0.00,,,0.00,meteohub,2013-07-11 10:02:00,
2013-07-11 05:07:00,56.5,56.1,21.90,West,270,0.0,0.0,99,0.00,,,0.00,meteohub,2013-07-11 10:07:00,
2013-07-11 05:12:00,56.1,55.8,21.90,SW,225,0.0,0.0,99,0.00,,,0.00,meteohub,2013-07-11 10:12:00,
2013-07-11 05:17:00,56.1,55.8,21.90,North,0,0.0,0.0,99,0.00,,,0.00,meteohub,2013-07-11 10:17:00,
2013-07-11 05:22:00,56.3,55.9,21.90,NW,315,0.0,0.0,99,0.00,,,0.00,meteohub,2013-07-11 10:22:00,
2013-07-11 05:27:00,56.7,56.3,21.89,North,0,0.0,0.0,99,0.00,,,0.00,meteohub,2013-07-11 10:27:00,
2013-07-11 05:32:00,56.8,56.5,21.89,NW,315,0.0,1.0,99,0.00,,,0.00,meteohub,2013-07-11 10:32:00,
2013-07-11 05:36:00,57.6,57.2,21.90,NW,315,0.0,1.0,99,0.00,,,0.00,meteohub,2013-07-11 10:36:00,
2013-07-11 05:41:00,57.4,57.0,21.89,North,0,0.0,1.0,99,0.00,,,0.00,meteohub,2013-07-11 10:41:00,
2013-07-11 05:47:00,57.4,57.0,21.89,SE,135,0.0,1.0,99,0.00,,,0.00,meteohub,2013-07-11 10:47:00,
2013-07-11 05:52:00,57.6,57.2,21.89,NW,315,1.0,2.0,99,0.00,,,0.00,meteohub,2013-07-11 10:52:00,
2013-07-11 05:57:00,57.6,57.2,21.89,NNW,338,0.0,2.0,99,0.00,,,0.00,meteohub,2013-07-11 10:57:00,
2013-07-11 06:01:00,57.6,57.2,21.89,North,0,2.0,2.0,99,0.00,,,0.00,meteohub,2013-07-11 11:01:00,
2013-07-11 06:07:00,57.7,57.4,21.88,North,0,0.0,2.0,99,0.00,,,0.00,meteohub,2013-07-11 11:07:00,
2013-07-11 06:12:00,57.9,57.6,21.88,NE,45,0.0,2.0,99,0.00,,,0.00,meteohub,2013-07-11 11:12:00,
2013-07-11 06:17:00,58.1,57.7,21.88,North,0,0.0,2.0,99,0.00,,,0.00,meteohub,2013-07-11 11:17:00,
2013-07-11 06:22:00,58.3,57.9,21.88,West,270,0.0,0.0,99,0.00,,,0.00,meteohub,2013-07-11 11:22:00,
2013-07-11 06:27:00,58.3,57.9,21.88,North,0,0.0,0.0,99,0.00,,,0.00,meteohub,2013-07-11 11:27:00,
2013-07-11 06:32:00,58.5,58.1,21.88,NW,315,0.0,0.0,99,0.00,,,0.00,meteohub,2013-07-11 11:32:00,
2013-07-11 06:37:00,58.8,58.5,21.87,NW,315,0.0,0.0,99,0.00,,,0.00,meteohub,2013-07-11 11:37:00,
2013-07-11 06:42:00,59.2,58.8,21.87,NW,315,0.0,0.0,99,0.00,,,0.00,meteohub,2013-07-11 11:42:00,
2013-07-11 06:47:00,59.5,59.2,21.87,NNW,338,2.0,2.0,99,0.00,,,0.00,meteohub,2013-07-11 11:47:00,
2013-07-11 06:52:00,59.9,59.5,21.88,NW,315,2.0,2.0,99,0.00,,,0.00,meteohub,2013-07-11 11:52:00,
2013-07-11 06:57:00,60.8,60.3,21.88,South,180,0.0,2.0,98,0.00,,,0.00,meteohub,2013-07-11 11:57:00,
2013-07-11 07:02:00,61.2,60.6,21.87,NW,315,2.0,2.0,98,0.00,,,0.00,meteohub,2013-07-11 12:02:00,
2013-07-11 07:07:00,61.2,60.6,21.87,NW,315,2.0,2.0,98,0.00,,,0.00,meteohub,2013-07-11 12:07:00,
2013-07-11 07:12:00,63.0,61.2,21.87,NW,315,2.0,2.0,94,0.00,,,0.00,meteohub,2013-07-11 12:12:00,
2013-07-11 07:17:00,63.3,61.0,21.87,South,180,0.0,2.0,92,0.00,,,0.00,meteohub,2013-07-11 12:17:00,
2013-07-11 07:22:00,63.7,61.0,21.87,SW,225,0.0,2.0,91,0.00,,,0.00,meteohub,2013-07-11 12:22:00,
2013-07-11 07:26:00,63.7,60.6,21.87,SW,225,0.0,2.0,90,0.00,,,0.00,meteohub,2013-07-11 12:26:00,
2013-07-11 07:32:00,64.2,61.2,21.87,SW,225,0.0,2.0,90,0.00,,,0.00,meteohub,2013-07-11 12:32:00,
2013-07-11 07:37:00,65.8,63.1,21.87,SW,225,0.0,2.0,91,0.00,,,0.00,meteohub,2013-07-11 12:37:00,
2013-07-11 07:42:00,67.1,63.1,21.87,West,270,1.0,2.0,87,0.00,,,0.00,meteohub,2013-07-11 12:42:00,
2013-07-11 07:47:00,68.0,63.3,21.86,SW,225,0.0,2.0,85,0.00,,,0.00,meteohub,2013-07-11 12:47:00,
2013-07-11 07:52:00,69.1,64.0,21.87,South,180,1.0,2.0,84,0.00,,,0.00,meteohub,2013-07-11 12:52:00,
2013-07-11 07:57:00,70.7,64.6,21.87,SW,225,2.0,2.0,81,0.00,,,0.00,meteohub,2013-07-11 12:57:00,
2013-07-11 08:02:00,71.6,63.3,21.86,South,180,0.0,2.0,75,0.00,,,0.00,meteohub,2013-07-11 13:02:00,
2013-07-11 08:07:00,72.7,64.2,21.86,SE,135,0.0,2.0,75,0.00,,,0.00,meteohub,2013-07-11 13:07:00,
2013-07-11 08:12:00,73.8,64.6,21.86,SW,225,0.0,2.0,73,0.00,,,0.00,meteohub,2013-07-11 13:12:00,
2013-07-11 08:17:00,73.2,63.3,21.86,SW,225,2.0,0.0,71,0.00,,,0.00,meteohub,2013-07-11 13:17:00,
2013-07-11 08:22:00,73.0,63.5,21.86,SE,135,2.0,2.0,72,0.00,,,0.00,meteohub,2013-07-11 13:22:00,
2013-07-11 08:27:00,74.5,63.7,21.86,East,90,2.0,2.0,69,0.00,,,0.00,meteohub,2013-07-11 13:27:00,
2013-07-11 08:32:00,74.1,62.4,21.86,SW,225,2.0,3.0,67,0.00,,,0.00,meteohub,2013-07-11 13:32:00,
2013-07-11 08:37:00,73.8,63.3,21.86,West,270,1.0,3.0,70,0.00,,,0.00,meteohub,2013-07-11 13:37:00,
2013-07-11 08:42:00,74.8,63.1,21.86,SW,225,2.0,3.0,67,0.00,,,0.00,meteohub,2013-07-11 13:42:00,
2013-07-11 08:47:00,74.1,62.1,21.86,North,0,4.0,4.0,66,0.00,,,0.00,meteohub,2013-07-11 13:47:00,
2013-07-11 08:52:00,73.4,61.3,21.86,NW,315,2.0,4.0,66,0.00,,,0.00,meteohub,2013-07-11 13:52:00,
2013-07-11 08:57:00,74.7,63.0,21.86,NW,315,2.0,4.0,67,0.00,,,0.00,meteohub,2013-07-11 13:57:00,
2013-07-11 09:02:00,75.2,61.3,21.86,East,90,2.0,4.0,62,0.00,,,0.00,meteohub,2013-07-11 14:02:00,
2013-07-11 09:07:00,75.7,61.9,21.86,West,270,4.0,6.0,62,0.00,,,0.00,meteohub,2013-07-11 14:07:00,
2013-07-11 09:12:00,77.2,62.2,21.86,NW,315,2.0,6.0,60,0.00,,,0.00,meteohub,2013-07-11 14:12:00,
2013-07-11 09:17:00,77.4,59.4,21.86,North,0,3.0,6.0,54,0.00,,,0.00,meteohub,2013-07-11 14:17:00,
2013-07-11 09:22:00,77.4,61.0,21.86,SW,225,2.0,4.0,57,0.00,,,0.00,meteohub,2013-07-11 14:22:00,
2013-07-11 09:27:00,77.7,60.3,21.86,West,270,2.0,5.0,55,0.00,,,0.00,meteohub,2013-07-11 14:27:00,
2013-07-11 09:32:00,77.9,59.4,21.86,East,90,2.0,6.0,53,0.00,,,0.00,meteohub,2013-07-11 14:32:00,
2013-07-11 09:37:00,78.4,60.4,21.86,WNW,293,4.0,6.0,54,0.00,,,0.00,meteohub,2013-07-11 14:37:00,
2013-07-11 09:42:00,78.1,60.1,21.87,West,270,4.0,6.0,54,0.00,,,0.00,meteohub,2013-07-11 14:42:00,
2013-07-11 09:47:00,77.7,60.3,21.87,NE,45,4.0,4.0,55,0.00,,,0.00,meteohub,2013-07-11 14:47:00,
2013-07-11 09:52:00,78.8,60.3,21.87,West,270,2.0,6.0,53,0.00,,,0.00,meteohub,2013-07-11 14:52:00,
2013-07-11 09:57:00,80.2,60.4,21.87,North,0,2.0,6.0,51,0.00,,,0.00,meteohub,2013-07-11 14:57:00,
2013-07-11 10:02:00,80.2,61.0,21.87,South,180,2.0,6.0,52,0.00,,,0.00,meteohub,2013-07-11 15:02:00,
2013-07-11 10:07:00,81.0,60.1,21.86,NE,45,4.0,4.0,49,0.00,,,0.00,meteohub,2013-07-11 15:07:00,
2013-07-11 10:12:00,81.3,59.7,21.86,SW,225,4.0,4.0,48,0.00,,,0.00,meteohub,2013-07-11 15:12:00,
2013-07-11 10:17:00,80.1,60.8,21.86,West,270,5.0,8.0,52,0.00,,,0.00,meteohub,2013-07-11 15:17:00,
2013-07-11 10:22:00,81.0,60.6,21.86,West,270,4.0,8.0,50,0.00,,,0.00,meteohub,2013-07-11 15:22:00,
2013-07-11 10:27:00,80.2,59.4,21.86,West,270,4.0,8.0,49,0.00,,,0.00,meteohub,2013-07-11 15:27:00,
2013-07-11 10:32:00,79.3,59.7,21.86,NW,315,4.0,5.0,51,0.00,,,0.00,meteohub,2013-07-11 15:32:00,
2013-07-11 10:37:00,79.2,60.1,21.86,West,270,4.0,5.0,52,0.00,,,0.00,meteohub,2013-07-11 15:37:00,
2013-07-11 10:42:00,79.3,58.5,21.86,South,180,6.0,6.0,49,0.00,,,0.00,meteohub,2013-07-11 15:42:00,
2013-07-11 10:47:00,80.4,59.5,21.86,West,270,3.0,6.0,49,0.00,,,0.00,meteohub,2013-07-11 15:47:00,
2013-07-11 10:52:00,80.6,57.9,21.86,NE,45,2.0,6.0,46,0.00,,,0.00,meteohub,2013-07-11 15:52:00,
2013-07-11 10:57:00,81.9,55.9,21.87,West,270,2.0,6.0,41,0.00,,,0.00,meteohub,2013-07-11 15:57:00,
2013-07-11 11:02:00,84.4,56.7,21.86,West,270,2.0,6.0,39,0.00,,,0.00,meteohub,2013-07-11 16:02:00,
2013-07-11 11:07:00,85.6,54.9,21.86,SW,225,2.0,6.0,35,0.00,,,0.00,meteohub,2013-07-11 16:07:00,
2013-07-11 11:12:00,82.8,54.5,21.86,South,180,4.0,4.0,38,0.00,,,0.00,meteohub,2013-07-11 16:12:00,
2013-07-11 11:17:00,82.9,57.6,21.86,East,90,2.0,6.0,42,0.00,,,0.00,meteohub,2013-07-11 16:17:00,
2013-07-11 11:22:00,85.1,58.8,21.86,NE,45,2.0,6.0,41,0.00,,,0.00,meteohub,2013-07-11 16:22:00,
2013-07-11 11:27:00,83.8,56.3,21.86,West,270,4.0,6.0,39,0.00,,,0.00,meteohub,2013-07-11 16:27:00,
2013-07-11 11:32:00,82.2,54.1,21.86,West,270,4.0,4.0,38,0.00,,,0.00,meteohub,2013-07-11 16:32:00,
2013-07-11 11:37:00,81.1,53.8,21.86,South,180,3.0,5.0,39,0.00,,,0.00,meteohub,2013-07-11 16:37:00,
2013-07-11 11:42:00,81.9,54.5,21.86,SW,225,4.0,5.0,39,0.00,,,0.00,meteohub,2013-07-11 16:42:00,
2013-07-11 11:47:00,81.5,54.1,21.86,West,270,4.0,5.0,39,0.00,,,0.00,meteohub,2013-07-11 16:47:00,
2013-07-11 11:52:00,81.3,54.0,21.86,SW,225,5.0,6.0,39,0.00,,,0.00,meteohub,2013-07-11 16:52:00,
2013-07-11 11:57:00,81.7,53.6,21.86,West,270,4.0,6.0,38,0.00,,,0.00,meteohub,2013-07-11 16:57:00,
2013-07-11 12:02:00,81.5,53.4,21.86,West,270,3.0,7.0,38,0.00,,,0.00,meteohub,2013-07-11 17:02:00,
2013-07-11 12:07:00,81.9,55.2,21.86,West,270,8.0,8.0,40,0.00,,,0.00,meteohub,2013-07-11 17:07:00,
2013-07-11 12:12:00,80.6,54.7,21.86,SW,225,0.0,8.0,41,0.00,,,0.00,meteohub,2013-07-11 17:12:00,
2013-07-11 12:17:00,81.7,55.0,21.86,West,270,4.0,8.0,40,0.00,,,0.00,meteohub,2013-07-11 17:17:00,
2013-07-11 12:22:00,84.7,58.5,21.86,West,270,3.0,8.0,41,0.00,,,0.00,meteohub,2013-07-11 17:22:00,
2013-07-11 12:27:00,84.6,54.7,21.86,North,0,3.0,4.0,36,0.00,,,0.00,meteohub,2013-07-11 17:27:00,
2013-07-11 12:32:00,85.3,54.5,21.86,West,270,4.0,4.0,35,0.00,,,0.00,meteohub,2013-07-11 17:32:00,
2013-07-11 12:37:00,86.0,53.6,21.86,NE,45,4.0,4.0,33,0.00,,,0.00,meteohub,2013-07-11 17:37:00,
2013-07-11 12:43:00,86.0,53.6,21.86,West,270,3.0,5.0,33,0.00,,,0.00,meteohub,2013-07-11 17:43:00,
2013-07-11 12:48:00,86.5,57.2,21.86,South,180,2.0,5.0,37,0.00,,,0.00,meteohub,2013-07-11 17:48:00,
2013-07-11 12:53:00,88.7,55.0,21.87,SE,135,5.0,5.0,32,0.00,,,0.00,meteohub,2013-07-11 17:53:00,
2013-07-11 12:58:00,86.4,54.7,21.87,NNE,23,4.0,7.0,34,0.00,,,0.00,meteohub,2013-07-11 17:58:00,
2013-07-11 13:03:00,87.3,57.0,21.87,South,180,4.0,7.0,36,0.00,,,0.00,meteohub,2013-07-11 18:03:00,
2013-07-11 13:08:00,87.1,53.6,21.87,South,180,4.0,7.0,32,0.00,,,0.00,meteohub,2013-07-11 18:08:00,
2013-07-11 13:13:00,85.8,55.0,21.87,West,270,4.0,7.0,35,0.00,,,0.00,meteohub,2013-07-11 18:13:00,
2013-07-11 13:18:00,84.7,55.6,21.87,NW,315,2.0,6.0,37,0.00,,,0.00,meteohub,2013-07-11 18:18:00,
2013-07-11 13:23:00,85.3,54.5,21.87,South,180,4.0,8.0,35,0.00,,,0.00,meteohub,2013-07-11 18:23:00,
2013-07-11 13:28:00,85.1,55.2,21.88,SW,225,3.0,8.0,36,0.00,,,0.00,meteohub,2013-07-11 18:28:00,
2013-07-11 13:33:00,85.3,56.8,21.87,West,270,3.0,8.0,38,0.00,,,0.00,meteohub,2013-07-11 18:33:00,
2013-07-11 13:38:00,88.3,59.5,21.88,NW,315,2.0,4.0,38,0.00,,,0.00,meteohub,2013-07-11 18:38:00,
2013-07-11 13:43:00,90.1,54.5,21.88,SE,135,4.0,4.0,30,0.00,,,0.00,meteohub,2013-07-11 18:43:00,
2013-07-11 13:48:00,90.1,54.5,21.87,South,180,3.0,4.0,30,0.00,,,0.00,meteohub,2013-07-11 18:48:00,
2013-07-11 13:53:00,88.2,53.8,21.88,NE,45,5.0,5.0,31,0.00,,,0.00,meteohub,2013-07-11 18:53:00,
2013-07-11 13:58:00,87.8,55.0,21.88,SE,135,3.0,6.0,33,0.00,,,0.00,meteohub,2013-07-11 18:58:00,
2013-07-11 14:03:00,88.5,55.8,21.88,SE,135,2.0,6.0,33,0.00,,,0.00,meteohub,2013-07-11 19:03:00,
2013-07-11 14:08:00,88.2,53.8,21.87,West,270,4.0,6.0,31,0.00,,,0.00,meteohub,2013-07-11 19:08:00,
2013-07-11 14:13:00,86.2,55.4,21.88,NNW,338,2.0,4.0,35,0.00,,,0.00,meteohub,2013-07-11 19:13:00,
2013-07-11 14:18:00,86.2,55.4,21.88,West,270,2.0,5.0,35,0.00,,,0.00,meteohub,2013-07-11 19:18:00,
2013-07-11 14:23:00,86.2,53.8,21.88,West,270,6.0,6.0,33,0.00,,,0.00,meteohub,2013-07-11 19:23:00,
2013-07-11 14:28:00,84.9,55.0,21.88,West,270,5.0,8.0,36,0.00,,,0.00,meteohub,2013-07-11 19:28:00,
2013-07-11 14:33:00,87.3,57.0,21.88,SW,225,5.0,8.0,36,0.00,,,0.00,meteohub,2013-07-11 19:33:00,
2013-07-11 14:38:00,86.9,55.9,21.88,North,0,2.0,8.0,35,0.00,,,0.00,meteohub,2013-07-11 19:38:00,
2013-07-11 14:43:00,88.5,56.5,21.88,SW,225,2.0,6.0,34,0.00,,,0.00,meteohub,2013-07-11 19:43:00,
2013-07-11 14:48:00,87.8,54.3,21.88,East,90,2.0,5.0,32,0.00,,,0.00,meteohub,2013-07-11 19:48:00,
2013-07-11 14:53:00,89.6,56.7,21.88,South,180,2.0,6.0,33,0.00,,,0.00,meteohub,2013-07-11 19:53:00,
2013-07-11 14:58:00,88.0,53.6,21.88,East,90,4.0,6.0,31,0.00,,,0.00,meteohub,2013-07-11 19:58:00,
2013-07-11 15:03:00,87.3,54.7,21.88,SE,135,2.0,4.0,33,0.00,,,0.00,meteohub,2013-07-11 20:03:00,
2013-07-11 15:08:00,84.4,55.2,21.89,West,270,2.0,4.0,37,0.00,,,0.00,meteohub,2013-07-11 20:08:00,
2013-07-11 15:13:00,85.5,56.3,21.89,South,180,2.0,4.0,37,0.00,,,0.00,meteohub,2013-07-11 20:13:00,
2013-07-11 15:18:00,86.2,55.4,21.89,North,0,2.0,4.0,35,0.00,,,0.00,meteohub,2013-07-11 20:18:00,
2013-07-11 15:23:00,89.2,56.3,21.89,SW,225,7.0,7.0,33,0.00,,,0.00,meteohub,2013-07-11 20:23:00,
2013-07-11 15:28:00,87.8,53.4,21.89,SW,225,3.0,7.0,31,0.00,,,0.00,meteohub,2013-07-11 20:28:00,
2013-07-11 15:33:00,89.1,55.4,21.89,ESE,113,4.0,7.0,32,0.00,,,0.00,meteohub,2013-07-11 20:33:00,
2013-07-11 15:38:00,90.5,54.0,21.89,East,90,4.0,7.0,29,0.00,,,0.00,meteohub,2013-07-11 20:38:00,
2013-07-11 15:43:00,90.0,54.3,21.89,ESE,113,2.0,4.0,30,0.00,,,0.00,meteohub,2013-07-11 20:43:00,
2013-07-11 15:48:00,92.1,58.8,21.89,South,180,3.0,4.0,33,0.00,,,0.00,meteohub,2013-07-11 20:48:00,
2013-07-11 15:53:00,89.1,52.7,21.89,West,270,7.0,7.0,29,0.00,,,0.00,meteohub,2013-07-11 20:53:00,
2013-07-11 15:58:00,86.0,53.6,21.89,West,270,4.0,9.0,33,0.00,,,0.00,meteohub,2013-07-11 20:58:00,
2013-07-11 16:03:00,85.5,54.0,21.90,SW,225,3.0,9.0,34,0.00,,,0.00,meteohub,2013-07-11 21:03:00,
2013-07-11 16:08:00,85.8,53.4,21.89,SW,225,3.0,9.0,33,0.00,,,0.00,meteohub,2013-07-11 21:08:00,
2013-07-11 16:13:00,87.3,53.8,21.90,South,180,2.0,7.0,32,0.00,,,0.00,meteohub,2013-07-11 21:13:00,
2013-07-11 16:18:00,87.6,55.8,21.90,West,270,2.0,6.0,34,0.00,,,0.00,meteohub,2013-07-11 21:18:00,
2013-07-11 16:23:00,88.2,53.8,21.90,SW,225,7.0,7.0,31,0.00,,,0.00,meteohub,2013-07-11 21:23:00,
2013-07-11 16:28:00,86.4,55.4,21.90,West,270,8.0,8.0,35,0.00,,,0.00,meteohub,2013-07-11 21:28:00,
2013-07-11 16:33:00,85.1,53.6,21.90,North,0,4.0,8.0,34,0.00,,,0.00,meteohub,2013-07-11 21:33:00,
2013-07-11 16:39:00,86.4,55.4,21.91,West,270,6.0,8.0,35,0.00,,,0.00,meteohub,2013-07-11 21:39:00,
2013-07-11 16:44:00,85.3,53.8,21.90,SW,225,4.0,8.0,34,0.00,,,0.00,meteohub,2013-07-11 21:44:00,
2013-07-11 16:49:00,85.5,57.7,21.90,West,270,9.0,9.0,39,0.00,,,0.00,meteohub,2013-07-11 21:49:00,
2013-07-11 16:54:00,84.9,57.9,21.91,South,180,2.0,9.0,40,0.00,,,0.00,meteohub,2013-07-11 21:54:00,
2013-07-11 16:59:00,87.3,57.7,21.91,East,90,4.0,9.0,37,0.00,,,0.00,meteohub,2013-07-11 21:59:00,
2013-07-11 17:04:00,88.3,56.5,21.91,West,270,8.0,9.0,34,0.00,,,0.00,meteohub,2013-07-11 22:04:00,
2013-07-11 17:09:00,85.1,55.9,21.90,WSW,248,8.0,8.0,37,0.00,,,0.00,meteohub,2013-07-11 22:09:00,
2013-07-11 17:14:00,84.0,57.0,21.91,West,270,5.0,10.0,40,0.00,,,0.00,meteohub,2013-07-11 22:14:00,
2013-07-11 17:19:00,84.7,56.3,21.91,West,270,4.0,10.0,38,0.00,,,0.00,meteohub,2013-07-11 22:19:00,
2013-07-11 17:24:00,84.4,57.4,21.90,West,270,9.0,10.0,40,0.00,,,0.00,meteohub,2013-07-11 22:24:00,
2013-07-11 17:29:00,84.2,58.6,21.90,NNW,338,5.0,8.0,42,0.00,,,0.00,meteohub,2013-07-11 22:29:00,
2013-07-11 17:34:00,84.9,59.2,21.91,NW,315,5.0,11.0,42,0.00,,,0.00,meteohub,2013-07-11 22:34:00,
2013-07-11 17:39:00,84.0,57.7,21.91,West,270,5.0,11.0,41,0.00,,,0.00,meteohub,2013-07-11 22:39:00,
2013-07-11 17:44:00,85.3,59.0,21.91,South,180,2.0,9.0,41,0.00,,,0.00,meteohub,2013-07-11 22:44:00,
2013-07-11 17:49:00,85.5,59.0,21.91,NW,315,4.0,9.0,41,0.00,,,0.00,meteohub,2013-07-11 22:49:00,
2013-07-11 17:54:00,84.6,58.3,21.91,SW,225,3.0,9.0,41,0.00,,,0.00,meteohub,2013-07-11 22:54:00,
2013-07-11 17:59:00,84.4,58.1,21.91,West,270,5.0,7.0,41,0.00,,,0.00,meteohub,2013-07-11 22:59:00,
2013-07-11 18:04:00,83.7,58.1,21.91,SW,225,5.0,7.0,42,0.00,,,0.00,meteohub,2013-07-11 23:04:00,
2013-07-11 18:09:00,84.0,59.2,21.91,SW,225,4.0,7.0,43,0.00,,,0.00,meteohub,2013-07-11 23:09:00,
2013-07-11 18:14:00,83.5,57.9,21.91,West,270,5.0,8.0,42,0.00,,,0.00,meteohub,2013-07-11 23:14:00,
2013-07-11 18:19:00,83.5,58.6,21.91,NW,315,8.0,8.0,43,0.00,,,0.00,meteohub,2013-07-11 23:19:00,
2013-07-11 18:24:00,82.9,58.1,21.91,West,270,6.0,8.0,43,0.00,,,0.00,meteohub,2013-07-11 23:24:00,
2013-07-11 18:29:00,82.6,57.2,21.91,West,270,8.0,8.0,42,0.00,,,0.00,meteohub,2013-07-11 23:29:00,
2013-07-11 18:34:00,82.6,57.7,21.91,West,270,4.0,8.0,43,0.00,,,0.00,meteohub,2013-07-11 23:34:00,
2013-07-11 18:39:00,82.4,57.7,21.91,SW,225,6.0,8.0,43,0.00,,,0.00,meteohub,2013-07-11 23:39:00,
2013-07-11 18:44:00,82.6,58.5,21.91,West,270,4.0,8.0,44,0.00,,,0.00,meteohub,2013-07-11 23:44:00,
2013-07-11 18:49:00,82.2,57.6,21.91,SW,225,4.0,6.0,43,0.00,,,0.00,meteohub,2013-07-11 23:49:00,
2013-07-11 18:54:00,81.7,57.6,21.91,SW,225,6.0,9.0,44,0.00,,,0.00,meteohub,2013-07-11 23:54:00,
2013-07-11 18:59:00,81.3,57.4,21.91,SW,225,5.0,9.0,44,0.00,,,0.00,meteohub,2013-07-11 23:59:00,
2013-07-11 19:04:00,81.3,57.9,21.91,SW,225,9.0,9.0,45,0.00,,,0.00,meteohub,2013-07-12 00:04:00,
2013-07-11 19:09:00,80.8,57.4,21.91,West,270,5.0,8.0,45,0.00,,,0.00,meteohub,2013-07-12 00:09:00,
2013-07-11 19:14:00,80.8,58.1,21.91,West,270,5.0,9.0,46,0.00,,,0.00,meteohub,2013-07-12 00:14:00,
2013-07-11 19:19:00,80.6,57.9,21.90,West,270,3.0,9.0,46,0.00,,,0.00,meteohub,2013-07-12 00:19:00,
2013-07-11 19:24:00,80.6,59.2,21.91,West,270,5.0,8.0,48,0.00,,,0.00,meteohub,2013-07-12 00:24:00,
2013-07-11 19:29:00,80.6,59.2,21.91,SW,225,3.0,7.0,48,0.00,,,0.00,meteohub,2013-07-12 00:29:00,
2013-07-11 19:34:00,80.6,59.2,21.91,West,270,4.0,7.0,48,0.00,,,0.00,meteohub,2013-07-12 00:34:00,
2013-07-11 19:39:00,80.1,60.3,21.91,West,270,4.0,5.0,51,0.00,,,0.00,meteohub,2013-07-12 00:39:00,
2013-07-11 19:44:00,79.7,59.9,21.91,SW,225,3.0,4.0,51,0.00,,,0.00,meteohub,2013-07-12 00:44:00,
2013-07-11 19:49:00,79.3,60.3,21.92,SW,225,3.0,4.0,52,0.00,,,0.00,meteohub,2013-07-12 00:49:00,
2013-07-11 19:54:00,78.3,59.7,21.91,West,270,3.0,4.0,53,0.00,,,0.00,meteohub,2013-07-12 00:54:00,
2013-07-11 19:59:00,77.2,59.2,21.91,SW,225,4.0,4.0,54,0.00,,,0.00,meteohub,2013-07-12 00:59:00,
2013-07-11 20:04:00,76.5,60.1,21.91,West,270,3.0,4.0,57,0.00,,,0.00,meteohub,2013-07-12 01:04:00,
2013-07-11 20:09:00,75.9,60.1,21.91,West,270,2.0,4.0,58,0.00,,,0.00,meteohub,2013-07-12 01:09:00,
2013-07-11 20:14:00,75.4,60.1,21.91,West,270,2.0,4.0,59,0.00,,,0.00,meteohub,2013-07-12 01:14:00,
2013-07-11 20:19:00,75.0,60.3,21.91,West,270,1.0,4.0,60,0.00,,,0.00,meteohub,2013-07-12 01:19:00,
2013-07-11 20:24:00,74.7,60.8,21.91,West,270,0.0,3.0,62,0.00,,,0.00,meteohub,2013-07-12 01:24:00,
2013-07-11 20:29:00,74.1,60.3,21.91,West,270,1.0,2.0,62,0.00,,,0.00,meteohub,2013-07-12 01:29:00,
2013-07-11 20:34:00,73.4,60.4,21.91,West,270,2.0,2.0,64,0.00,,,0.00,meteohub,2013-07-12 01:34:00,
2013-07-11 20:39:00,72.5,61.0,21.91,West,270,2.0,2.0,67,0.00,,,0.00,meteohub,2013-07-12 01:39:00,
2013-07-11 20:44:00,71.8,61.0,21.91,West,270,2.0,2.0,69,0.00,,,0.00,meteohub,2013-07-12 01:44:00,
2013-07-11 20:49:00,71.1,61.2,21.91,West,270,1.0,2.0,71,0.00,,,0.00,meteohub,2013-07-12 01:49:00,
2013-07-11 20:55:00,70.7,61.2,21.91,West,270,0.0,2.0,72,0.00,,,0.00,meteohub,2013-07-12 01:55:00,
2013-07-11 20:59:00,70.2,61.5,21.91,SW,225,0.0,2.0,74,0.00,,,0.00,meteohub,2013-07-12 01:59:00,
2013-07-11 21:04:00,69.6,61.3,21.91,West,270,0.0,2.0,75,0.00,,,0.00,meteohub,2013-07-12 02:04:00,
2013-07-11 21:10:00,69.3,61.3,21.91,West,270,0.0,2.0,76,0.00,,,0.00,meteohub,2013-07-12 02:10:00,
2013-07-11 21:15:00,69.1,61.9,21.91,West,270,0.0,0.0,78,0.00,,,0.00,meteohub,2013-07-12 02:15:00,
2013-07-11 21:20:00,68.7,62.2,21.91,West,270,0.0,0.0,80,0.00,,,0.00,meteohub,2013-07-12 02:20:00,
2013-07-11 21:25:00,68.4,61.9,21.91,West,270,0.0,0.0,80,0.00,,,0.00,meteohub,2013-07-12 02:25:00,
2013-07-11 21:30:00,68.2,62.1,21.90,SW,225,0.0,0.0,81,0.00,,,0.00,meteohub,2013-07-12 02:30:00,
2013-07-11 21:35:00,68.2,62.1,21.90,SW,225,0.0,0.0,81,0.00,,,0.00,meteohub,2013-07-12 02:35:00,
2013-07-11 21:40:00,67.8,62.1,21.90,NW,315,0.0,0.0,82,0.00,,,0.00,meteohub,2013-07-12 02:40:00,
2013-07-11 21:45:00,67.5,61.7,21.90,West,270,0.0,0.0,82,0.00,,,0.00,meteohub,2013-07-12 02:45:00,
2013-07-11 21:50:00,67.3,61.9,21.90,SW,225,0.0,0.0,83,0.00,,,0.00,meteohub,2013-07-12 02:50:00,
2013-07-11 21:55:00,67.1,61.7,21.90,SW,225,0.0,0.0,83,0.00,,,0.00,meteohub,2013-07-12 02:55:00,
2013-07-11 22:00:00,66.7,61.3,21.90,South,180,0.0,0.0,83,0.00,,,0.00,meteohub,2013-07-12 03:00:00,
2013-07-11 22:05:00,66.2,60.8,21.90,SW,225,0.0,0.0,83,0.00,,,0.00,meteohub,2013-07-12 03:05:00,
2013-07-11 22:10:00,65.8,61.2,21.89,West,270,0.0,0.0,85,0.00,,,0.00,meteohub,2013-07-12 03:10:00,
2013-07-11 22:15:00,65.8,61.2,21.89,South,180,0.0,0.0,85,0.00,,,0.00,meteohub,2013-07-12 03:15:00,
2013-07-11 22:20:00,65.8,61.5,21.90,West,270,0.0,0.0,86,0.00,,,0.00,meteohub,2013-07-12 03:20:00,
2013-07-11 22:25:00,65.7,61.7,21.89,West,270,1.0,0.0,87,0.00,,,0.00,meteohub,2013-07-12 03:25:00,
2013-07-11 22:30:00,65.7,61.7,21.89,SW,225,0.0,2.0,87,0.00,,,0.00,meteohub,2013-07-12 03:30:00,
2013-07-11 22:35:00,65.5,61.9,21.90,West,270,0.0,2.0,88,0.00,,,0.00,meteohub,2013-07-12 03:35:00,
2013-07-11 22:40:00,65.3,61.7,21.89,West,270,0.0,1.0,88,0.00,,,0.00,meteohub,2013-07-12 03:40:00,
2013-07-11 22:45:00,65.1,61.5,21.89,SW,225,0.0,0.0,88,0.00,,,0.00,meteohub,2013-07-12 03:45:00,
2013-07-11 22:50:00,64.9,61.3,21.89,West,270,0.0,0.0,88,0.00,,,0.00,meteohub,2013-07-12 03:50:00,
2013-07-11 22:55:00,64.6,61.0,21.89,West,270,0.0,0.0,88,0.00,,,0.00,meteohub,2013-07-12 03:55:00,
2013-07-11 23:00:00,64.4,60.8,21.90,SW,225,0.0,0.0,88,0.00,,,0.00,meteohub,2013-07-12 04:00:00,
2013-07-11 23:01:00,64.4,60.8,21.90,SW,225,0.0,0.0,88,0.00,,,0.00,meteohub,2013-07-12 04:01:00,
2013-07-11 23:02:00,64.4,60.8,21.89,SW,225,0.0,0.0,88,0.00,,,0.00,meteohub,2013-07-12 04:02:00,
2013-07-11 23:07:00,64.4,60.8,21.90,SW,225,0.0,0.0,88,0.00,,,0.00,meteohub,2013-07-12 04:07:00,
2013-07-11 23:12:00,63.9,60.3,21.90,West,270,0.0,0.0,88,0.00,,,0.00,meteohub,2013-07-12 04:12:00,
2013-07-11 23:17:00,63.9,60.6,21.89,West,270,0.0,0.0,89,0.00,,,0.00,meteohub,2013-07-12 04:17:00,
2013-07-11 23:22:00,63.7,60.4,21.90,SW,225,0.0,0.0,89,0.00,,,0.00,meteohub,2013-07-12 04:22:00,
2013-07-11 23:27:00,63.5,60.3,21.90,West,270,0.0,0.0,89,0.00,,,0.00,meteohub,2013-07-12 04:27:00,
2013-07-11 23:32:00,63.5,60.3,21.90,West,270,0.0,0.0,89,0.00,,,0.00,meteohub,2013-07-12 04:32:00,
2013-07-11 23:37:00,63.3,60.1,21.89,SW,225,0.0,0.0,89,0.00,,,0.00,meteohub,2013-07-12 04:37:00,
2013-07-11 23:42:00,63.1,60.1,21.89,SW,225,0.0,0.0,90,0.00,,,0.00,meteohub,2013-07-12 04:42:00,
2013-07-11 23:47:00,62.8,59.7,21.89,SW,225,0.0,0.0,90,0.00,,,0.00,meteohub,2013-07-12 04:47:00,
2013-07-11 23:52:00,62.6,59.5,21.88,SW,225,0.0,0.0,90,0.00,,,0.00,meteohub,2013-07-12 04:52:00,
2013-07-11 23:57:00,62.6,59.5,21.88,West,270,0.0,0.0,90,0.00,,,0.00,meteohub,2013-07-12 04:57:00,